When you browse on this site, cookies collect data to enhance your experience and personalize the content and advertising you see.
Visit our Privacy Policy to learn more. By continuing to use the site, you agree to this use of cookies and data.
  • In Romania
  • List of Countries
  • For 7 days
  • Water Temperature
  • Weather Map
  • Weather Widgets
  • user-avatar
    Login

    Hourly Weather Koluszki

    Today, 20 September, Friday

    Time Temperature Precipitation Wind Pressure Humidity
    00:00 +5°C° 0 mm 3 mps 751 mmHg 82%
    01:00 +5°C° 0 mm 3 mps 751 mmHg 85%
    02:00 +5°C° 0 mm 3 mps 751 mmHg 85%
    03:00 +5°C° 0 mm 3 mps 751 mmHg 86%
    04:00 +5°C° 0 mm 3 mps 751 mmHg 86%
    05:00 +5°C° 0 mm 3 mps 751 mmHg 85%
    06:00 +6°C° 0 mm 4 mps 751 mmHg 83%
    07:00 +6°C° 0 mm 4 mps 751 mmHg 82%
    08:00 +8°C° 0 mm 4 mps 751 mmHg 73%
    09:00 +10°C° 0 mm 4 mps 751 mmHg 65%
    10:00 +12°C° 0 mm 4 mps 751 mmHg 56%
    11:00 +12°C° 0 mm 4 mps 751 mmHg 52%
    12:00 +13°C° 0 mm 5 mps 751 mmHg 48%
    13:00 +14°C° 0 mm 5 mps 751 mmHg 44%
    14:00 +14°C° 0 mm 4 mps 750 mmHg 46%
    15:00 +14°C° 0 mm 4 mps 750 mmHg 47%
    16:00 +13°C° 0 mm 4 mps 750 mmHg 48%
    17:00 +12°C° 0 mm 3 mps 750 mmHg 52%
    18:00 +11°C° 0 mm 3 mps 750 mmHg 56%
    19:00 +10°C° 0 mm 2 mps 750 mmHg 59%
    20:00 +10°C° 0 mm 2 mps 750 mmHg 61%
    21:00 +10°C° 0 mm 3 mps 750 mmHg 62%
    22:00 +10°C° 0 mm 3 mps 750 mmHg 63%
    23:00 +10°C° 0 mm 4 mps 750 mmHg 67%

    Tomorrow, 21 September, Saturday

    Time Temperature Precipitation Wind Pressure Humidity
    00:00 +10°C° 0 mm 4 mps 750 mmHg 70%
    01:00 +10°C° 0 mm 4 mps 750 mmHg 73%
    02:00 +8°C° 0 mm 4 mps 750 mmHg 76%
    03:00 +8°C° 0 mm 4 mps 749 mmHg 79%
    04:00 +7°C° 0 mm 4 mps 749 mmHg 83%
    05:00 +8°C° 0 mm 4 mps 749 mmHg 81%
    06:00 +8°C° 0 mm 4 mps 749 mmHg 80%
    07:00 +9°C° 0 mm 5 mps 749 mmHg 78%
    08:00 +10°C° 0 mm 5 mps 749 mmHg 74%
    09:00 +13°C° 0 mm 5 mps 749 mmHg 70%
    10:00 +15°C° 0 mm 5 mps 749 mmHg 66%
    11:00 +16°C° 0 mm 5 mps 749 mmHg 63%
    12:00 +16°C° 0 mm 5 mps 749 mmHg 61%
    13:00 +17°C° 0 mm 5 mps 749 mmHg 59%
    14:00 +17°C° 0 mm 5 mps 749 mmHg 59%
    15:00 +17°C° 0 mm 5 mps 748 mmHg 60%
    16:00 +18°C° 0 mm 4 mps 748 mmHg 60%
    17:00 +17°C° 0 mm 3 mps 748 mmHg 66%
    18:00 +14°C° 0 mm 3 mps 748 mmHg 71%
    19:00 +14°C° 0 mm 2 mps 748 mmHg 76%
    20:00 +13°C° 0 mm 2 mps 748 mmHg 79%
    21:00 +13°C° 0 mm 1 mps 748 mmHg 81%
    22:00 +12°C° 0 mm 1 mps 748 mmHg 83%
    23:00 +12°C° 0 mm 1 mps 748 mmHg 83%

    Day after tomorrow, 22 September, Sunday

    Time Temperature Precipitation Wind Pressure Humidity
    00:00 +12°C° 0 mm 2 mps 748 mmHg 83%
    01:00 +12°C° 0 mm 2 mps 748 mmHg 82%
    02:00 +10°C° 0 mm 2 mps 748 mmHg 82%
    03:00 +10°C° 0 mm 2 mps 747 mmHg 82%
    04:00 +10°C° 0 mm 2 mps 747 mmHg 82%
    05:00 +10°C° 0 mm 2 mps 747 mmHg 78%
    06:00 +12°C° 0 mm 2 mps 747 mmHg 75%
    07:00 +13°C° 0 mm 2 mps 747 mmHg 72%
    08:00 +15°C° 0 mm 2 mps 747 mmHg 63%
    09:00 +17°C° 0 mm 2 mps 747 mmHg 54%
    10:00 +19°C° 0 mm 2 mps 747 mmHg 45%
    11:00 +20°C° 0 mm 2 mps 747 mmHg 42%
    12:00 +20°C° 0 mm 2 mps 746 mmHg 39%
    13:00 +21°C° 0 mm 2 mps 746 mmHg 36%
    14:00 +22°C° 0 mm 1 mps 745 mmHg 37%
    15:00 +22°C° 0 mm 1 mps 745 mmHg 39%
    16:00 +22°C° 0 mm 1 mps 745 mmHg 41%
    17:00 +20°C° 0 mm 1 mps 744 mmHg 45%
    18:00 +19°C° 0 mm 1 mps 744 mmHg 50%
    19:00 +16°C° 0 mm 2 mps 744 mmHg 54%
    20:00 +15°C° 0 mm 2 mps 744 mmHg 57%
    21:00 +15°C° 0 mm 2 mps 744 mmHg 61%
    22:00 +14°C° 0 mm 2 mps 744 mmHg 64%
    23:00 +14°C° 0 mm 2 mps 743 mmHg 66%

    23 September, Monday

    Time Temperature Precipitation Wind Pressure Humidity
    00:00 +13°C° 0 mm 2 mps 743 mmHg 68%
    01:00 +12°C° 0 mm 3 mps 743 mmHg 70%
    02:00 +11°C° 0 mm 3 mps 742 mmHg 69%
    03:00 +11°C° 0 mm 3 mps 742 mmHg 68%
    04:00 +10°C° 0 mm 3 mps 741 mmHg 67%
    05:00 +10°C° 0 mm 3 mps 741 mmHg 66%
    06:00 +11°C° 0 mm 4 mps 741 mmHg 64%
    07:00 +11°C° 0 mm 4 mps 740 mmHg 63%
    08:00 +13°C° 0 mm 4 mps 740 mmHg 59%
    09:00 +14°C° 0 mm 4 mps 740 mmHg 56%
    10:00 +15°C° 0 mm 4 mps 740 mmHg 53%
    11:00 +15°C° 0 mm 4 mps 740 mmHg 53%
    12:00 +17°C° 0 mm 4 mps 740 mmHg 54%
    13:00 +17°C° 0 mm 4 mps 739 mmHg 55%
    14:00 +15°C° 0 mm 4 mps 739 mmHg 60%
    15:00 +15°C° 0 mm 4 mps 739 mmHg 65%
    16:00 +14°C° 0 mm 4 mps 739 mmHg 71%
    17:00 +14°C° 0 mm 3 mps 739 mmHg 76%
    18:00 +13°C° 0 mm 3 mps 739 mmHg 81%
    19:00 +13°C° 0 mm 2 mps 739 mmHg 86%
    20:00 +13°C° 0 mm 2 mps 739 mmHg 88%
    21:00 +13°C° 0 mm 2 mps 739 mmHg 89%
    22:00 +12°C° 0 mm 2 mps 739 mmHg 90%
    23:00 +12°C° 0 mm 2 mps 740 mmHg 92%

    24 September, Tuesday

    Time Temperature Precipitation Wind Pressure Humidity
    00:00 +10°C° 0 mm 2 mps 740 mmHg 94%
    01:00 +10°C° 0 mm 2 mps 740 mmHg 95%
    02:00 +10°C° 0 mm 2 mps 740 mmHg 96%
    03:00 +10°C° 0 mm 2 mps 740 mmHg 96%
    04:00 +9°C° 0 mm 2 mps 740 mmHg 96%
    05:00 +10°C° 0 mm 2 mps 740 mmHg 95%
    06:00 +10°C° 0 mm 2 mps 741 mmHg 93%
    07:00 +12°C° 0 mm 2 mps 741 mmHg 91%
    08:00 +14°C° 0 mm 2 mps 741 mmHg 83%
    09:00 +16°C° 0 mm 3 mps 742 mmHg 75%
    10:00 +17°C° 0 mm 3 mps 742 mmHg 67%
    11:00 +18°C° 0 mm 3 mps 742 mmHg 63%
    12:00 +19°C° 0 mm 3 mps 742 mmHg 59%
    13:00 +20°C° 0 mm 2 mps 742 mmHg 54%
    14:00 +20°C° 0 mm 2 mps 742 mmHg 54%
    15:00 +20°C° 0 mm 2 mps 742 mmHg 55%
    16:00 +21°C° 0 mm 1 mps 742 mmHg 55%
    17:00 +20°C° 0 mm 1 mps 742 mmHg 59%
    18:00 +19°C° 0 mm 1 mps 742 mmHg 63%
    19:00 +18°C° 0 mm 1 mps 742 mmHg 67%
    20:00 +16°C° 0 mm 2 mps 742 mmHg 70%
    21:00 +15°C° 0 mm 2 mps 742 mmHg 72%
    22:00 +15°C° 0 mm 2 mps 742 mmHg 75%
    23:00 +14°C° 0 mm 2 mps 742 mmHg 77%

    25 September, Wednesday

    Time Temperature Precipitation Wind Pressure Humidity
    00:00 +14°C° 0 mm 2 mps 742 mmHg 78%
    01:00 +14°C° 0 mm 2 mps 742 mmHg 80%
    02:00 +14°C° 0 mm 2 mps 742 mmHg 82%
    03:00 +13°C° 0 mm 2 mps 742 mmHg 84%
    04:00 +13°C° 0 mm 2 mps 741 mmHg 86%
    05:00 +12°C° 0 mm 3 mps 741 mmHg 85%
    06:00 +12°C° 0 mm 3 mps 741 mmHg 85%
    07:00 +13°C° 0 mm 3 mps 741 mmHg 84%
    08:00 +13°C° 0.1 mm 3 mps 741 mmHg 82%
    09:00 +14°C° 0.1 mm 3 mps 741 mmHg 80%
    10:00 +16°C° 0.1 mm 3 mps 741 mmHg 78%
    11:00 +17°C° 0.2 mm 3 mps 740 mmHg 74%
    12:00 +18°C° 0.2 mm 3 mps 740 mmHg 70%
    13:00 +19°C° 0.2 mm 3 mps 739 mmHg 66%
    14:00 +19°C° 0.1 mm 3 mps 739 mmHg 65%
    15:00 +19°C° 0.1 mm 2 mps 739 mmHg 63%
    16:00 +20°C° 0.1 mm 2 mps 738 mmHg 62%
    17:00 +19°C° 0 mm 2 mps 738 mmHg 65%
    18:00 +17°C° 0 mm 2 mps 738 mmHg 69%
    19:00 +16°C° 0 mm 2 mps 738 mmHg 73%
    20:00 +16°C° 0 mm 3 mps 738 mmHg 74%
    21:00 +16°C° 0 mm 3 mps 738 mmHg 74%
    22:00 +16°C° 0 mm 3 mps 738 mmHg 75%
    23:00 +16°C° 0 mm 3 mps 738 mmHg 77%
    Show more